Regional Weather Roundup
Issued by NWS

Home | Current Version | Previous Version | Text Only | Print | Product List | Glossary Off
Versions: 1 2 3 4 5 6 7 8 9 10 11 12 13 14 15 16 17 18 19 20 21 22 23 24 25 26 27 28 29 30 31 32 33 34 35 36 37 38 39 40 41 42 43 44 45 46 47 48 49 50

000
ASUS45 KCYS 170710
RWRWY

WYOMING REGIONAL WEATHER ROUNDUP
NATIONAL WEATHER SERVICE CHEYENNE WY
100 AM MDT WED SEP 17 2014

NOTE:  "FAIR" INDICATES FEW OR NO CLOUDS BELOW 12,000 FEET
WITH NO SIGNIFICANT WEATHER AND/OR OBSTRUCTIONS TO VISIBILITY.

WYZ001-170800-
YELLOWSTONE NATIONAL PARK

CITY           SKY/WX    TMP DP  RH WIND       PRES   REMARKS
LK YELLOWSTONE   N/A     42  37  82 CALM      30.26S
W YELLOWSTONE  NOT AVBL

$$
WYZ002>013-054>058-071-098>099-170800-
NORTHERN WYOMING

CITY           SKY/WX    TMP DP  RH WIND       PRES   REMARKS
JACKSON        PTCLDY    48  45  87 N7        30.17F
CODY           PTCLDY    57  43  58 S5        30.06F
GREYBULL       MOCLDY    59  48  67 SW3       30.00R
WORLAND        PTCLDY    61  46  57 SE3       30.01R
SHERIDAN       MOCLDY    57  45  64 CALM      29.99R
BUFFALO        PTCLDY    60  36  40 S5        30.06S
GILLETTE       MOCLDY    55  42  61 S5        30.01S
HULETT         FAIR      52  37  58 MISG      30.02
NEWCASTLE      FAIR      54  34  47 N3        30.03

$$
WYZ014>020-022>026-101>103-170800-
CENTRAL WYOMING

CITY           SKY/WX    TMP DP  RH WIND       PRES   REMARKS
BIG PINEY      CLEAR     48  37  65 NW6       30.23S
PINEDALE       PTSUNNY   50  34  53 N6        30.23F
DUBOIS         LGT RAIN  46  41  81 W5        30.22F
LANDER         PTCLDY    61  40  45 CALM      30.12S
RIVERTON       PTCLDY    60  39  45 SW3       30.11S
CASPER         MOCLDY    63  34  33 CALM      30.09F
DOUGLAS        MOCLDY    57  41  55 W17       30.12R

$$
WYZ021-027>030-104>119-170800-
SOUTHERN WYOMING

CITY           SKY/WX    TMP DP  RH WIND       PRES   REMARKS
EVANSTON       CLEAR     60  37  42 S7        30.21F
KEMMERER       SUNNY    N/A N/A N/A N8        30.23F
FORT BRIDGER   FAIR      60  38  45 S9        30.24S
ROCK SPRINGS   CLEAR     61  36  39 SE7       30.20S
DIXON          FAIR      59  40  48 NE3       30.23S
RAWLINS        PTCLDY    64  35  34 W10       30.19F
SARATOGA       FAIR      59  37  44 SE6       30.23S
LARAMIE        PTCLDY    49  34  56 SE10      30.22F
CHEYENNE       PTCLDY    60  38  43 W7        30.16S
TORRINGTON     PTCLDY    59  43  55 SE7       29.99F
PINE BLUFFS    FAIR      50  37  62 S5        30.11F

$$



USA.gov is the U.S. government's official web portal to all federal, state and local government web resources and services.